FW3157 Weather Reports


Display with metric or nautical units.
time (UTC)temp
F
wind
direction
speed
MPH
gust
MPH
rain 1hr
in
rain 24hr
in
rain mn
in
humidity
%
barometer
mb
20260506062409 63 253 2.0 4.0 0.00 0.00 0.00 68 1016.4
20260506061901 63 255 2.0 4.0 0.00 0.00 0.00 68 1016.4
20260506061836 63 267 1.0 4.0 0.00 0.00 0.00 70 1016.3
20260506060849 63 266 2.0 4.0 0.00 0.00 0.00 70 1016.3
20260506060601 63 265 2.0 4.0 0.00 0.00 0.00 69 1016.3
20260506051242 63 103 0.0 2.0 0.00 0.00 0.00 67 1016.2
20260506050738 63 103 0.0 2.0 0.00 0.00 0.00 65 1016.3
20260506050231 64 102 0.0 2.0 0.00 0.00 0.00 66 1016.3
20260506044713 64 101 0.0 1.0 0.00 0.00 0.00 63 1016.1
20260506044207 64 101 0.0 1.0 0.00 0.00 0.00 63 1016.2
20260506043701 63 102 0.0 1.0 0.00 0.00 0.00 64 1016.1
20260506043154 63 101 0.0 1.0 0.00 0.00 0.00 65 1016.0
20260506042649 63 102 0.0 0.0 0.00 0.00 0.00 65 1016.0
20260506042404 62 102 0.0 1.0 0.00 0.00 0.00 67 1015.9
20260506041637 62 102 0.0 1.0 0.00 0.00 0.00 66 1015.9
20260506041130 62 101 0.0 0.0 0.00 0.00 0.00 65 1015.8
20260506040851 62 102 0.0 0.0 0.00 0.00 0.00 67 1015.7
20260506040340 61 102 0.0 0.0 0.00 0.00 0.00 68 1015.7
20260506035613 60 101 0.0 0.0 0.00 0.00 0.00 68 1015.6
20260506035107 60 102 0.0 1.0 0.00 0.00 0.00 68 1015.6
20260506034601 60 102 0.0 2.0 0.00 0.00 0.00 68 1015.5
20260506034059 59 101 0.0 2.0 0.00 0.00 0.00 68 1015.6
20260506033552 59 102 0.0 0.0 0.00 0.00 0.00 68 1015.5
20260506033056 59 102 0.0 0.0 0.00 0.00 0.00 68 1015.6
20260506032552 59 102 0.0 1.0 0.00 0.00 0.00 68 1015.6
20260506032318 59 102 0.0 1.0 0.00 0.00 0.00 68 1015.5
20260506031549 59 104 0.0 1.0 0.00 0.00 0.00 68 1015.5
20260506031324 59 80 0.0 2.0 0.00 0.00 0.00 68 1015.5
20260506030549 59 80 0.0 2.0 0.00 0.00 0.00 68 1015.5
20260506030054 59 80 1.0 2.0 0.00 0.00 0.00 68 1015.5
20260506025548 59 80 0.0 2.0 0.00 0.00 0.00 69 1015.4
20260506025047 59 80 0.0 1.0 0.00 0.00 0.00 69 1015.4
20260506024546 59 80 0.0 1.0 0.00 0.00 0.00 69 1015.4
20260506024045 59 80 0.0 1.0 0.00 0.00 0.00 70 1015.4
20260506023545 59 80 0.0 1.0 0.00 0.00 0.00 70 1015.5
20260506023526 59 80 0.0 0.0 0.00 0.00 0.00 70 1015.5
20260506022543 59 80 0.0 0.0 0.00 0.00 0.00 70 1015.5
20260506022042 59 80 0.0 0.0 0.00 0.00 0.00 70 1015.6
20260506021551 59 80 0.0 1.0 0.00 0.00 0.00 70 1015.6
20260506021037 59 80 0.0 1.0 0.00 0.00 0.00 70 1015.6
20260506020536 59 80 0.0 0.0 0.00 0.00 0.00 70 1015.6
20260506020036 59 80 0.0 1.0 0.00 0.00 0.00 70 1015.6
20260506015528 59 80 0.0 1.0 0.00 0.00 0.00 70 1015.5
20260506015022 60 80 0.0 1.0 0.00 0.00 0.00 70 1015.5
20260506014517 60 80 0.0 2.0 0.00 0.00 0.00 69 1015.4
20260506014010 60 80 1.0 2.0 0.00 0.00 0.00 68 1015.5
20260506013507 61 343 1.0 3.0 0.00 0.00 0.00 69 1015.5
20260506013006 61 343 1.0 3.0 0.00 0.00 0.00 69 1015.4
20260506012505 61 310 2.0 6.0 0.00 0.00 0.00 68 1015.3
20260506012007 61 310 2.0 6.0 0.00 0.00 0.00 69 1015.4
20260506011501 61 293 1.0 4.0 0.00 0.00 0.00 71 1015.3
20260506011001 61 292 2.0 4.0 0.00 0.00 0.00 72 1015.4
20260506010458 61 292 3.0 5.0 0.00 0.00 0.00 72 1015.4
20260506005959 61 303 3.0 5.0 0.00 0.00 0.00 72 1015.3
20260506005458 61 308 3.0 7.0 0.00 0.00 0.00 73 1015.3
20260506005205 61 276 3.0 7.0 0.00 0.00 0.00 71 1015.3
20260506005047 61 315 3.0 7.0 0.00 0.00 0.00 72 1015.3
20260506004221 61 295 3.0 7.0 0.00 0.00 0.00 71 1015.3
20260506003459 61 290 3.0 7.0 0.00 0.00 0.00 72 1015.2
20260506002959 61 266 2.0 6.0 0.00 0.00 0.00 73 1015.2
20260506002457 61 268 2.0 6.0 0.00 0.00 0.00 73 1015.2
20260506001957 60 271 3.0 5.0 0.00 0.00 0.00 75 1015.2
20260506001453 60 273 3.0 6.0 0.00 0.00 0.00 76 1015.2
20260506000953 60 272 3.0 6.0 0.00 0.00 0.00 77 1015.2
20260506000452 61 283 3.0 5.0 0.00 0.00 0.00 79 1015.2
20260505235953 61 281 3.0 5.0 0.00 0.00 0.00 78 1015.2
20260505235452 61 258 3.0 4.0 0.00 0.00 0.00 78 1015.1
20260505234952 61 262 2.0 4.0 0.00 0.00 0.00 78 1015.0
20260505234937 61 276 3.0 6.0 0.00 0.00 0.00 78 1015.0
20260505233953 62 245 3.0 6.0 0.00 0.00 0.00 77 1015.0
20260505233453 63 257 3.0 5.0 0.00 0.00 0.00 74 1015.0
20260505232949 63 251 2.0 5.0 0.00 0.00 0.00 71 1015.0
20260505232708 63 272 1.0 2.0 0.00 0.00 0.00 61 1015.0
20260505232205 63 272 0.0 2.0 0.00 0.00 0.00 59 1015.0
20260505231449 63 272 0.0 0.0 0.00 0.00 0.00 59 1014.9
20260505231205 63 272 0.0 0.0 0.00 0.00 0.00 59 1014.9
20260505230448 63 272 0.0 0.0 0.00 0.00 0.00 60 1015.0
20260505225948 63 272 0.0 0.0 0.00 0.00 0.00 60 1014.9
20260505225448 63 272 0.0 0.0 0.00 0.00 0.00 61 1014.9
20260505224949 63 272 0.0 0.0 0.00 0.00 0.00 61 1015.0
20260505224444 63 272 0.0 0.0 0.00 0.00 0.00 64 1015.0
20260505223945 63 272 0.0 0.0 0.00 0.00 0.00 67 1015.1
20260505223922 64 272 0.0 0.0 0.00 0.00 0.00 69 1015.1
20260505222940 63 272 0.0 0.0 0.00 0.00 0.00 71 1015.1
20260505222438 63 272 0.0 0.0 0.00 0.00 0.00 71 1015.1
20260505221936 63 272 0.0 0.0 0.00 0.00 0.00 71 1015.0
20260505221435 63 272 0.0 0.0 0.00 0.00 0.00 71 1015.0
20260505220932 63 272 0.0 0.0 0.00 0.00 0.00 71 1015.0
20260505220432 64 272 0.0 0.0 0.00 0.00 0.00 72 1015.0
20260505215933 64 272 0.0 1.0 0.00 0.00 0.00 72 1014.9
20260505215433 64 272 1.0 3.0 0.00 0.00 0.00 72 1014.9
20260505214932 64 272 1.0 3.0 0.00 0.00 0.00 72 1014.9
20260505214430 64 272 1.0 3.0 0.00 0.00 0.00 72 1014.9
20260505213928 64 272 2.0 6.0 0.00 0.00 0.00 71 1014.9
20260505213428 65 272 2.0 6.0 0.00 0.00 0.00 71 1014.8
20260505212928 65 294 3.0 7.0 0.00 0.00 0.00 69 1014.8
20260505212426 65 295 4.0 8.0 0.00 0.00 0.00 68 1014.8
20260505211925 65 300 4.0 8.0 0.00 0.00 0.00 66 1014.8
20260505211652 66 278 4.0 8.0 0.00 0.00 0.00 64 1014.8
20260505210917 66 299 3.0 8.0 0.00 0.00 0.00 62 1014.7
20260505210420 66 313 2.0 6.0 0.00 0.00 0.00 61 1014.7
20260505205915 66 37 3.0 6.0 0.00 0.00 0.00 59 1014.6
20260505205633 67 70 2.0 6.0 0.00 0.00 0.00 58 1014.6
20260505204915 67 75 2.0 5.0 0.00 0.00 0.00 55 1014.6
20260505204416 68 99 2.0 5.0 0.00 0.00 0.00 50 1014.5
20260505203914 68 89 2.0 7.0 0.00 0.00 0.00 43 1014.5
20260505203906 69 89 4.0 9.0 0.00 0.00 0.00 40 1014.4
20260505203139 69 87 4.0 9.0 0.00 0.00 0.00 40 1014.4
20260505202416 68 113 4.0 8.0 0.00 0.00 0.00 41 1014.3
20260505201915 68 107 4.0 7.0 0.00 0.00 0.00 42 1014.3
20260505201416 68 93 3.0 6.0 0.00 0.00 0.00 42 1014.3
20260505200913 68 76 2.0 6.0 0.00 0.00 0.00 43 1014.2
20260505200412 68 107 3.0 8.0 0.00 0.00 0.00 43 1014.2
20260505195912 68 101 4.0 8.0 0.00 0.00 0.00 43 1014.2
20260505195411 68 103 4.0 7.0 0.00 0.00 0.00 43 1014.1
20260505194910 69 117 4.0 9.0 0.00 0.00 0.00 43 1014.0
20260505194411 69 105 5.0 10.0 0.00 0.00 0.00 43 1013.8
20260505193909 69 108 5.0 11.0 0.00 0.00 0.00 42 1013.8
20260505193408 69 150 5.0 12.0 0.00 0.00 0.00 42 1013.8
20260505192909 69 108 6.0 14.0 0.00 0.00 0.00 43 1013.7
20260505192623 69 131 7.0 14.0 0.00 0.00 0.00 43 1013.7
20260505191907 69 179 7.0 14.0 0.00 0.00 0.00 44 1013.7
20260505191627 69 158 7.0 14.0 0.00 0.00 0.00 44 1013.7
20260505190906 69 71 7.0 14.0 0.00 0.00 0.00 44 1013.6
20260505190631 69 143 6.0 14.0 0.00 0.00 0.00 45 1013.6
20260505185904 69 100 6.0 13.0 0.00 0.00 0.00 45 1013.6
20260505185402 69 81 6.0 15.0 0.00 0.00 0.00 45 1013.5
20260505184900 69 109 7.0 13.0 0.00 0.00 0.00 45 1013.5
20260505184621 69 111 7.0 13.0 0.00 0.00 0.00 46 1013.4
20260505183900 69 101 7.0 13.0 0.00 0.00 0.00 46 1013.4
20260505183628 70 101 6.0 13.0 0.00 0.00 0.00 45 1013.4
20260505182858 70 156 4.0 13.0 0.00 0.00 0.00 44 1013.3
20260505182358 71 116 4.0 9.0 0.00 0.00 0.00 42 1013.4
20260505181857 71 117 5.0 10.0 0.00 0.00 0.00 41 1013.2
20260505181356 71 91 5.0 10.0 0.00 0.00 0.00 40 1013.2
20260505180907 71 108 4.0 10.0 0.00 0.00 0.00 40 1013.1
20260505180356 72 96 4.0 10.0 0.00 0.00 0.00 39 1013.1
20260505175857 72 134 4.0 10.0 0.00 0.00 0.00 38 1013.0
20260505175625 72 123 5.0 10.0 0.00 0.00 0.00 39 1013.1
20260505174857 72 184 6.0 10.0 0.00 0.00 0.00 39 1013.0
20260505174356 73 93 6.0 10.0 0.00 0.00 0.00 39 1013.0
20260505173850 73 96 6.0 12.0 0.00 0.00 0.00 39 1013.0
20260505173344 73 108 5.0 12.0 0.00 0.00 0.00 39 1013.0
20260505172837 73 100 4.0 9.0 0.00 0.00 0.00 39 1012.9
20260505172331 74 108 5.0 9.0 0.00 0.00 0.00 37 1012.9
20260505171826 74 111 5.0 9.0 0.00 0.00 0.00 36 1012.9
20260505171542 74 120 4.0 9.0 0.00 0.00 0.00 36 1012.9
20260505170814 74 144 3.0 9.0 0.00 0.00 0.00 37 1012.9
20260505170308 74 79 3.0 11.0 0.00 0.00 0.00 36 1012.9
20260505165802 75 112 3.0 11.0 0.00 0.00 0.00 36 1012.9
20260505165256 75 144 4.0 12.0 0.00 0.00 0.00 37 1012.9
20260505164750 76 203 4.0 12.0 0.00 0.00 0.00 38 1013.0
20260505164244 76 126 4.0 11.0 0.00 0.00 0.00 37 1013.0
20260505164007 77 78 4.0 9.0 0.00 0.00 0.00 36 1013.0
20260505163231 77 143 3.0 9.0 0.00 0.00 0.00 35 1013.0
20260505162726 78 140 3.0 9.0 0.00 0.00 0.00 35 1013.0
20260505162219 78 198 4.0 9.0 0.00 0.00 0.00 34 1012.9
20260505161714 77 159 4.0 10.0 0.00 0.00 0.00 35 1012.9
20260505161207 78 120 5.0 11.0 0.00 0.00 0.00 36 1013.0
20260505160703 78 153 5.0 12.0 0.00 0.00 0.00 36 1013.0
20260505160156 78 235 5.0 12.0 0.00 0.00 0.00 35 1013.0
20260505153120 80 217 4.0 10.0 0.00 0.00 0.00 33 1013.1
20260505152613 80 210 4.0 10.0 0.00 0.00 0.00 31 1013.1
20260505152107 80 161 4.0 9.0 0.00 0.00 0.00 31 1013.1
20260505151601 81 209 4.0 10.0 0.00 0.00 0.00 30 1013.1
20260505151545 81 193 4.0 10.0 0.00 0.00 0.00 30 1013.1
20260505150550 81 285 4.0 10.0 0.00 0.00 0.00 30 1013.1
20260505140512 80 152 5.0 11.0 0.00 0.00 0.00 30 1013.4
20260505130214 80 165 5.0 11.0 0.00 0.00 0.00 32 1013.8
20260505124951 80 219 4.0 8.0 0.00 0.00 0.00 31 1013.9
20260505124936 80 190 4.0 7.0 0.00 0.00 0.00 31 1014.0
20260505123952 80 217 4.0 9.0 0.00 0.00 0.00 31 1014.0
20260505123450 80 208 4.0 9.0 0.00 0.00 0.00 32 1014.1
20260505122950 81 222 3.0 9.0 0.00 0.00 0.00 35 1014.1
20260505122450 81 168 3.0 8.0 0.00 0.00 0.00 35 1014.1
20260505121950 80 221 4.0 10.0 0.00 0.00 0.00 34 1014.2
20260505121449 80 216 3.0 10.0 0.00 0.00 0.00 33 1014.2
20260505120950 80 224 3.0 11.0 0.00 0.00 0.00 36 1014.3
20260505120449 79 148 5.0 11.0 0.00 0.00 0.00 38 1014.4
20260505115950 79 214 4.0 11.0 0.00 0.00 0.00 36 1014.5
20260505115713 79 250 3.0 10.0 0.00 0.00 0.00 34 1014.5
20260505114950 80 238 3.0 7.0 0.00 0.00 0.00 34 1014.6
20260505114714 79 224 3.0 7.0 0.00 0.00 0.00 33 1014.6
20260505113948 79 58 4.0 8.0 0.00 0.00 0.00 33 1014.7
20260505113449 79 215 4.0 8.0 0.00 0.00 0.00 32 1014.7
20260505112947 79 218 3.0 7.0 0.00 0.00 0.00 32 1014.8
20260505112448 79 240 3.0 7.0 0.00 0.00 0.00 32 1014.8
20260505112210 79 214 3.0 7.0 0.00 0.00 0.00 32 1014.9
20260505111448 79 252 4.0 8.0 0.00 0.00 0.00 30 1014.9
20260505111209 78 283 5.0 8.0 0.00 0.00 0.00 28 1014.9
20260505110936 78 265 4.0 7.0 0.00 0.00 0.00 27 1014.9
20260505102211 76 197 3.0 5.0 0.00 0.00 0.00 35 1015.3
20260505101441 76 210 3.0 6.0 0.00 0.00 0.00 35 1015.3
20260505100935 76 221 2.0 6.0 0.00 0.00 0.00 35 1015.4
20260505100429 76 212 2.0 5.0 0.00 0.00 0.00 37 1015.5
20260505095929 76 238 2.0 6.0 0.00 0.00 0.00 37 1015.5
20260505095428 76 248 3.0 7.0 0.00 0.00 0.00 37 1015.5
20260505094926 75 246 3.0 7.0 0.00 0.00 0.00 38 1015.6
20260505094425 75 241 4.0 7.0 0.00 0.00 0.00 38 1015.6
20260505094151 75 316 3.0 7.0 0.00 0.00 0.00 35 1015.6
20260505093426 75 250 2.0 5.0 0.00 0.00 0.00 36 1015.7
20260505092923 74 184 3.0 6.0 0.00 0.00 0.00 37 1015.7
20260505092648 74 249 3.0 7.0 0.00 0.00 0.00 38 1015.8
20260505091924 74 206 3.0 7.0 0.00 0.00 0.00 38 1015.9
20260505091421 73 246 4.0 7.0 0.00 0.00 0.00 38 1015.9
20260505090919 73 285 4.0 7.0 0.00 0.00 0.00 37 1015.9
20260505090420 73 295 3.0 6.0 0.00 0.00 0.00 38 1016.0
20260505085919 72 293 2.0 6.0 0.00 0.00 0.00 38 1016.1
20260505085609 71 252 4.0 7.0 0.00 0.00 0.00 42 1016.1
20260505085452 72 251 3.0 6.0 0.00 0.00 0.00 40 1016.1
20260505085237 71 246 4.0 6.0 0.00 0.00 0.00 40 1016.1
20260505083919 71 259 3.0 7.0 0.00 0.00 0.00 43 1016.2
20260505083417 71 261 2.0 5.0 0.00 0.00 0.00 44 1016.2
20260505083137 70 262 3.0 5.0 0.00 0.00 0.00 45 1016.3
20260505082405 70 287 3.0 6.0 0.00 0.00 0.00 45 1016.3
20260505081859 69 263 3.0 6.0 0.00 0.00 0.00 45 1016.4
20260505081619 69 267 2.0 6.0 0.00 0.00 0.00 45 1016.4
20260505081336 69 281 2.0 5.0 0.00 0.00 0.00 45 1016.4
20260505080340 69 277 3.0 6.0 0.00 0.00 0.00 46 1016.4
20260505075834 68 292 3.0 7.0 0.00 0.00 0.00 46 1016.5
20260505075328 68 260 3.0 7.0 0.00 0.00 0.00 46 1016.5
20260505074823 68 297 3.0 6.0 0.00 0.00 0.00 46 1016.5
20260505074543 68 280 2.0 6.0 0.00 0.00 0.00 46 1016.5
20260505073811 67 278 2.0 6.0 0.00 0.00 0.00 46 1016.6
20260505073305 67 266 2.0 4.0 0.00 0.00 0.00 48 1016.6
20260505072758 66 255 2.0 4.0 0.00 0.00 0.00 50 1016.6
20260505072254 66 250 2.0 4.0 0.00 0.00 0.00 51 1016.6
20260505072009 66 266 2.0 4.0 0.00 0.00 0.00 53 1016.7
20260505071241 65 270 2.0 5.0 0.00 0.00 0.00 52 1016.7
20260505070959 65 252 2.0 5.0 0.00 0.00 0.00 53 1016.7
20260505070228 65 264 2.0 4.0 0.00 0.00 0.00 52 1016.7